Location: Boissi�res
(45.2500°N, 2.3667°E)
Time: 05:40:10
(UTC+00:00)

FALCON 9 DEB - Pass Details

Date: 03 March 2021
Orbit: 424 x 435 km, 53.0° (Epoch: 13 April)

Event Time Altitude Azimuth Distance (km) Brightness Sun altitude
Rises 18:20:10 0° 303° (WNW) 2,405 7.9 -7.8°
Reaches altitude 10° 18:22:23 10° 312° (NW) 1,533 6.6 -8.1°
Maximum altitude 18:25:36 36° 21° (NNE) 694 4.0 -8.7°
Enters shadow 18:28:20 13° 87° (E) 1,346 4.9 -9.2°
